Weather History for K4A9 - October, 2012

Change the Weather History Date:

Monday, October 15, 2012

  Actual Average (KRMG) Record (KRMG)
Temperature  
Mean Temperature 58 °F 61 °F  
Max Temperature 73 °F 74 °F 84 °F (2005)
Min Temperature 44 °F 49 °F 30 °F (2006)
Degree Days  
Heating Degree Days 6 5  
Month to date heating degree days 48  
Since 1 July heating degree days 62  
Cooling Degree Days 0 1  
Month to date cooling degree days 31  
Year to date cooling degree days 1621  
Growing Degree Days 8 (Base 50)    
Moisture  
Dew Point 50 °F    
Average Humidity 69    
Maximum Humidity 94    
Minimum Humidity 27    
Precipitation  
Precipitation 0.08 in 0.13 in 0.93 in (2002)
Month to date precipitation 1.93  
Year to date precipitation 40.76  
Sea Level Pressure  
Sea Level Pressure 29.96 in    
Wind  
Wind Speed 3 mph (NW)    
Max Wind Speed 15 mph    
Max Gust Speed 21 mph    
Visibility 8 miles    
Events Fog , Rain , Thunderstorm    
T = Trace of Precipitation, MM = Missing Value Source: NWS Daily Summary

Daily Weather History Graph

Daily Weather History Graph

Search for Another Location

Airport or City:

Trip Planner

Search our weather history database for the weather conditions in past years. The results will help you decide how hot, cold, wet, or windy it might be!

Date:

Astronomy

Oct. 15, 2012 Rise Set
Actual Time 6:48 AM CDT 6:07 PM CDT
Civil Twilight 6:23 AM CDT 6:33 PM CDT
Nautical Twilight 5:54 AM CDT 7:02 PM CDT
Astronomical Twilight 5:25 AM CDT 7:31 PM CDT
Moon 6:56 AM CDT (10/15) 6:10 PM CDT (10/15)
Length of Visible Light 12h 09m
Length of Day
11h 19m
New Moon, 0% of the Moon is Illuminated
Oct 15
New Moon
Oct 21
First Quarter
Oct 29
Full
Nov 6
Last Quarter
Nov 13
New

Hourly Weather History & Observations

Time (CDT) Temp. Dew Point Humidity Pressure Visibility Wind Dir Wind Speed Gust Speed Precip Events Conditions
12:15 AM 68.0 °F 60.8 °F 78% 29.93 in 10.0 mi SW 4.6 mph - N/A   Overcast
12:35 AM 68.0 °F 60.8 °F 78% 29.92 in 10.0 mi SSW 3.5 mph - N/A   Mostly Cloudy
12:55 AM 66.2 °F 62.6 °F 88% 29.94 in 5.0 mi SW 10.4 mph - 0.04 in Thunderstorm Overcast
1:15 AM 66.2 °F 62.6 °F 88% 29.94 in 10.0 mi SW 5.8 mph - N/A   Overcast
1:35 AM 66.2 °F 62.6 °F 88% 29.95 in 10.0 mi SSW 5.8 mph - N/A Rain Light Rain
1:55 AM 66.2 °F 62.6 °F 88% 29.95 in 5.0 mi WSW 3.5 mph - 0.03 in Rain Heavy Rain
2:15 AM 66.2 °F 62.6 °F 88% 29.95 in 7.0 mi Calm Calm - N/A   Overcast
2:35 AM 66.2 °F 62.6 °F 88% 29.94 in 7.0 mi Calm Calm - N/A Rain Rain
2:55 AM 64.4 °F 62.6 °F 94% 29.94 in 4.0 mi Calm Calm - N/A   Light Drizzle
3:15 AM 64.4 °F 62.6 °F 94% 29.94 in 4.0 mi Calm Calm - N/A   Overcast
3:35 AM 64.4 °F 60.8 °F 88% 29.93 in 10.0 mi Calm Calm - N/A Rain Rain
3:55 AM 64.4 °F 60.8 °F 88% 29.93 in 10.0 mi Calm Calm - 0.01 in   Overcast
4:15 AM 64.4 °F 59.0 °F 83% 29.93 in 10.0 mi Calm Calm - N/A   Mostly Cloudy
4:55 AM 60.8 °F 57.2 °F 88% 29.94 in 0.2 mi Calm Calm - N/A Fog Fog
5:15 AM 60.8 °F 57.2 °F 88% 29.95 in 1.8 mi Calm Calm - N/A   Scattered Clouds
5:35 AM 60.8 °F 57.2 °F 88% 29.95 in 7.0 mi Calm Calm - N/A   Mostly Cloudy
5:55 AM 60.8 °F 59.0 °F 94% 29.96 in 5.0 mi Calm Calm - N/A   Overcast
6:15 AM 60.8 °F 57.2 °F 88% 29.96 in 2.5 mi Calm Calm - N/A   Overcast
6:35 AM 60.8 °F 57.2 °F 88% 29.96 in 2.5 mi Calm Calm - N/A   Overcast
6:55 AM 59.0 °F 55.4 °F 88% 29.96 in 0.8 mi Calm Calm - N/A   Overcast
7:15 AM 59.0 °F 55.4 °F 88% 29.96 in 0.2 mi Calm Calm - N/A Fog Fog
7:35 AM 59.0 °F 55.4 °F 88% 29.97 in 0.2 mi Calm Calm - N/A Fog Fog
7:55 AM 59.0 °F 57.2 °F 94% 29.97 in 0.2 mi Calm Calm - N/A Fog Fog
8:15 AM 60.8 °F 59.0 °F 94% 29.98 in 0.2 mi Calm Calm - N/A Fog Fog
8:35 AM 60.8 °F 59.0 °F 94% 30.00 in 4.0 mi Calm Calm - N/A   Overcast
8:55 AM 62.6 °F 60.8 °F 94% 30.00 in 10.0 mi Calm Calm - N/A   Scattered Clouds
9:15 AM 64.4 °F 57.2 °F 77% 30.00 in 10.0 mi NE 3.5 mph - N/A   Scattered Clouds
9:35 AM 66.2 °F 53.6 °F 64% 30.00 in 10.0 mi NE 4.6 mph - N/A   Scattered Clouds
9:55 AM 66.2 °F 53.6 °F 64% 30.00 in 10.0 mi Calm Calm - N/A   Scattered Clouds
10:15 AM 66.2 °F 53.6 °F 64% 29.99 in 10.0 mi North 3.5 mph - N/A   Scattered Clouds
10:35 AM 68.0 °F 51.8 °F 56% 29.99 in 10.0 mi North 8.1 mph - N/A   Scattered Clouds
10:55 AM 68.0 °F 53.6 °F 60% 29.99 in 10.0 mi NW 6.9 mph - N/A   Scattered Clouds
11:15 AM 69.8 °F 51.8 °F 53% 30.00 in 10.0 mi West 9.2 mph - N/A   Scattered Clouds
11:35 AM 69.8 °F 50.0 °F 49% 30.00 in 10.0 mi NNW 8.1 mph - N/A   Clear
11:55 AM 69.8 °F 48.2 °F 46% 29.99 in 10.0 mi NW 8.1 mph 16.1 mph N/A   Scattered Clouds
12:15 PM 69.8 °F 48.2 °F 46% 29.98 in 10.0 mi NW 9.2 mph - N/A   Scattered Clouds
12:35 PM 71.6 °F 48.2 °F 43% 29.98 in 10.0 mi WNW 6.9 mph 17.3 mph N/A   Clear
12:55 PM 71.6 °F 46.4 °F 41% 29.97 in 10.0 mi WNW 11.5 mph 17.3 mph N/A   Clear
1:15 PM 71.6 °F 44.6 °F 38% 29.96 in 10.0 mi NW 8.1 mph - N/A   Clear
1:35 PM 71.6 °F 46.4 °F 41% 29.95 in 10.0 mi NW 8.1 mph - N/A   Clear
1:55 PM 71.6 °F 44.6 °F 38% 29.95 in 10.0 mi West 11.5 mph 17.3 mph N/A   Scattered Clouds
2:15 PM 73.4 °F 42.8 °F 33% 29.95 in 10.0 mi NW 8.1 mph - N/A   Scattered Clouds
2:35 PM 71.6 °F 41.0 °F 33% 29.94 in 10.0 mi NNW 15.0 mph 20.7 mph N/A   Clear
2:55 PM 71.6 °F 35.6 °F 27% 29.94 in 10.0 mi NNW 12.7 mph 18.4 mph N/A   Clear
3:15 PM 71.6 °F 35.6 °F 27% 29.94 in 10.0 mi NW 10.4 mph 18.4 mph N/A   Clear
3:35 PM 71.6 °F 37.4 °F 29% 29.94 in 10.0 mi NNW 8.1 mph - N/A   Clear
3:55 PM 71.6 °F 39.2 °F 31% 29.94 in 10.0 mi North 8.1 mph 16.1 mph N/A   Clear
4:15 PM 71.6 °F 39.2 °F 31% 29.95 in 10.0 mi North 10.4 mph - N/A   Clear
4:35 PM 69.8 °F 37.4 °F 31% 29.95 in 10.0 mi North 6.9 mph - N/A   Clear
4:55 PM 69.8 °F 37.4 °F 31% 29.95 in 10.0 mi NW 9.2 mph - N/A   Clear
5:15 PM 69.8 °F 37.4 °F 31% 29.95 in 10.0 mi Calm Calm - N/A   Clear
5:35 PM 68.0 °F 37.4 °F 33% 29.96 in 10.0 mi Calm Calm - N/A   Clear
5:55 PM 64.4 °F 37.4 °F 37% 29.96 in 10.0 mi Calm Calm - N/A   Clear
6:15 PM 64.4 °F 39.2 °F 40% 29.95 in 10.0 mi Calm Calm - N/A   Clear
6:35 PM 59.0 °F 44.6 °F 59% 29.96 in 7.0 mi Calm Calm - N/A   Clear
6:55 PM 55.4 °F 46.4 °F 72% 29.96 in 10.0 mi Calm Calm - N/A   Clear
7:15 PM 53.6 °F 46.4 °F 77% 29.96 in 10.0 mi Calm Calm - N/A   Clear
7:35 PM 53.6 °F 46.4 °F 77% 29.96 in 10.0 mi Calm Calm - N/A   Clear
7:55 PM 51.8 °F 46.4 °F 82% 29.97 in 10.0 mi Calm Calm - N/A   Clear
8:15 PM 51.8 °F 46.4 °F 82% 29.97 in 10.0 mi Calm Calm - N/A   Clear
8:35 PM 51.8 °F 46.4 °F 82% 29.97 in 10.0 mi Calm Calm - N/A   Clear
8:55 PM 50.0 °F 46.4 °F 87% 29.97 in 10.0 mi Calm Calm - N/A   Clear
9:15 PM 50.0 °F 46.4 °F 87% 29.97 in 10.0 mi Calm Calm - N/A   Clear
9:35 PM 50.0 °F 44.6 °F 82% 29.97 in 10.0 mi Calm Calm - N/A   Clear
9:55 PM 48.2 °F 44.6 °F 87% 29.98 in 10.0 mi Calm Calm - N/A   Clear
10:15 PM 46.4 °F 44.6 °F 93% 29.99 in 10.0 mi Calm Calm - N/A   Clear
10:35 PM 46.4 °F 44.6 °F 93% 29.99 in 10.0 mi Calm Calm - N/A   Clear
10:55 PM 46.4 °F 44.6 °F 93% 29.99 in 10.0 mi Calm Calm - N/A   Clear
11:15 PM 46.4 °F 44.6 °F 93% 29.99 in 10.0 mi Calm Calm - N/A   Clear
11:35 PM 44.6 °F 42.8 °F 93% 29.99 in 10.0 mi Calm Calm - N/A   Clear
11:55 PM 44.6 °F 42.8 °F 93% 29.99 in 10.0 mi Calm Calm - N/A   Clear